Location: Monrovia
(34.7865°N, 86.7139°W)
Time: 00:49:05
(UTC+00:00)

Cosmos 1697 Rocket - Pass Details

Date: 14 July 2020
Orbit: 834 x 842 km, 71.0° (Epoch: 12 August)

Event Time Altitude Azimuth Distance (km) Brightness Sun altitude
Rises 07:15:42 0° 350° (N) 3,390 6.6 -30.3°
Reaches altitude 10° 07:18:30 10° 2° (N) 2,451 5.9 -30.1°
Maximum altitude 07:23:19 29° 61° (ENE) 1,503 4.4 -29.7°
Enters shadow 07:27:18 13° 115° (ESE) 2,198 4.8 -29.3°
